User: anonymous   Login
Location: Izdebno
(52.6670°N, 16.2170°E)
Time: 20:25:36
(UTC+02:00)
Language:

Vanguard 1 - Orbit

View from above orbital plane
View from above orbital plane
View from above satellite
View from above satellite

Ground track
Ground track

The orbit data is extracted from the following two-line orbital elements,

1 00005U 58002B   24204.60204213  .00001092  00000-0  13529-2 0  9994
2 00005  34.2585 297.9968 1843185 247.1181  92.4900 10.85491409367773
Epoch (UTC): 22 July 2024 14:26:56
Eccentricity: 0.1843185
inclination: 34.2585°
perigee height: 650 km
apogee height: 3826 km
right ascension of ascending node: 297.9968°
argument of perigee: 247.1181°
revolutions per day: 10.85491409
mean anomaly at epoch: 92.4900°
orbit number at epoch: 36777

The dashed part of the orbit path shows where the satellite is in the earth's shadow,  

DLR